www.pogodaiklimat.ru

Погода и климат >> Архив погоды >> Россия >> Якутия >> Покровск


ПОГОДА в Покровске

  • Прогноз погоды в Покровске
  • Монитор погоды в Покровске
  • Климат города

АРХИВ ПОГОДЫ в Покровске

Время (UTC), дата Ветер
(напр.,м/с)
 
Видим.   Явления Облачность Т
(С)
Тd
(С)
f
(%)
Тe
(С)
Тes
(С)
Комфортность P
(гПа)
Po
(гПа)
Тmin
(С)
Tmax
(С)
R
(мм)
R24
(мм)
S
(см)
18 16.10 СЗ 2 20 км слабый снег 10/0 1000 м
[As op]
-10.1 -11.4 90 -15 -15 1027.9 1012.0
21 16.10 З 3 20 км слабый снег 10/0 600 м
[As op]
-11.4 -14.9 75 -17 -17 1028.5 1012.5
00 17.10 З 3 50 км слабый снег 10/0
[As op]
-11.1 -13.8 80 -17 -17 1028.2 1012.3 -11.5 0.0 4
03 17.10 З 4 50 км слабый снег 10/6 600 м
[Sc As op]
-9.4 -12.9 76 -16 -16 1028.1 1012.2
06 17.10 ЮЗ 4 50 км {снег} 6/0
[Ac trans]
-7.4 -12.8 65 -14 -14 1027.7 1011.9
09 17.10 З 1 50 км 10/0
[Ac trans]
-10.0 -13.6 75 -12 -12 1027.9 1012.0
12 17.10 З 1 20 км {снег} 10/0
[As op]
-9.3 -12.3 79 -12 -12 1027.7 1011.8 -7.4 0.0
15 17.10 СВ 1 20 км слабый снег 10/0
[As op]
-10.0 -12.0 85 -12 -12 1027.2 1011.3
18 17.10 С 2 20 км слабый снег 10/0
[As op]
-10.4 -11.7 90 -15 -15 1026.5 1010.6
21 17.10 СВ 2 20 км {снег} 10/0 800 м
[As op]
-9.8 -11.9 85 -14 -14 1025.6 1009.7
00 18.10 В 3 50 км {снег} 4/0
[Ac trans]
-10.1 -12.1 85 -16 -16 1024.8 1008.9 -10.4 0.0 4
03 18.10 В 3 50 км 3/0
[Ci fib]
-6.6 -11.2 70 -12 -11 1023.2 1007.5
06 18.10 В 4 50 км 8/0
[Cs]
-4.6 -11.7 58 -10 -10 1021.5 1006.0
09 18.10 В 4 50 км 10/0
[Cs]
-6.5 -11.5 68 -13 -13 1021.4 1005.8
12 18.10 СВ 4 20 км 4/0
[Ci fib]
-9.4 -12.4 79 -16 -16 1022.0 1006.1 -4.4
15 18.10 СВ 5 20 км 10/0
[Cs]
-11.8 -13.8 85 -20 -20 1021.7 1005.7
18 18.10 СВ 4 20 км 6/0
[Ci fib]
-12.4 -14.4 85 -20 -20 1021.3 1005.3
21 18.10 СВ 4 20 км 10/0
[As trans]
-12.8 -14.8 85 -20 -20 1021.1 1005.1
00 19.10 СВ 3 10 км слабый снег 10/0
[As op]
-12.8 -14.1 90 -19 -19 1021.1 1005.1 -12.8 0.0 4
03 19.10 С 3 4000 м снег 10/0
[As op]
-11.7 -13.0 90 -18 -17 1021.4 1005.4
06 19.10 С 3 4000 м слабый снег 10/0
[As op]
-10.8 -12.8 85 -17 -17 1021.9 1006.0
09 19.10 С 2 50 км {снег} 3/3 600 м
[Sc]
-12.4 -13.7 90 -17 -17 1022.9 1006.8
12 19.10 З 2 20 км {снег} 4/0
[Ac trans]
-17.6 -19.5 85 -23 -23 1024.3 1007.9 -9.6 1
15 19.10 З 3 20 км ясно -20.2 -22.1 85 -28 -28 1025.7 1009.1
18 19.10 З 2 20 км ясно -22.0 -24.6 79 -28 -28 1026.5 1009.8
21 19.10 З 2 20 км 6/0
[Ac trans]
-20.9 -22.8 85 -27 -27 1027.4 1010.8
00 20.10 З 2 20 км слабый снег 10/0
[Ac trans Cs]
-18.0 -19.2 90 -23 -23 1028.5 1012.1 -23.0 0.0 4
03 20.10 Ю 3 50 км {снег} 8/0
[Ac trans Ci fib]
-11.5 -14.3 80 -17 -16 1028.9 1012.8
06 20.10 ЮЗ 4 50 км {снег} 10/6 600 м
[Sc Ci fib]
-10.0 -12.8 80 -17 -17 1029.3 1013.3
09 20.10 З 3 20 км {снег} 10/10 800 м
[Sc]
-9.8 -13.4 75 -16 -16 1030.2 1014.2
12 20.10 З 1 20 км {снег} ясно -12.0 -14.7 80 -14 -14 1031.1 1015.0 -9.5 0.0
15 20.10 З 2 20 км ясно -16.2 -18.1 85 -21 -21 1031.7 1015.3
18 20.10 З 2 20 км ясно -19.8 -21.7 85 -26 -26 1032.4 1015.7
21 20.10 З 2 20 км ясно -23.1 -25.7 79 -29 -29 1033.1 1016.2
00 21.10 З 2 20 км ясно -23.0 -25.6 79 -29 -29 1033.8 1016.9 -23.1 0.0 4
03 21.10 20 км н/о -11.9 -15.4 75 1033.0 1016.9
06 21.10 штиль 0 50 км ?/? -11.8 -15.3 75 -12 -12 1032.1 1016.0
09 21.10 З 1 20 км 6/0
[Ac trans]
-16.3 -18.2 85 -19 -19 1032.5 1016.1
12 21.10 ЮЗ 2 20 км 6/0
[Ac trans]
-21.1 -22.3 90 -27 -27 1032.8 1016.0 -9.7
15 21.10 З 2 20 км ясно -23.9 -25.1 90 -30 -30 1032.0 1015.1
18 21.10 З 1 20 км слабый снег 10/0
[As op]
-20.7 -22.6 85 -24 -24 1031.3 1014.7
21 21.10 ЮВ 2 20 км слабый снег 10/0 600 м
[As op]
-14.5 -15.1 95 -19 -19 1030.0 1013.2
00 22.10 ЮЗ 1 50 км слабый снег 10/3 600 м
[St Cs]
-17.2 -17.8 95 -20 -20 1028.0 1011.6 -23.9 0.2 4
03 22.10 Ю 2 50 км {снег} 8/5 600 м
[Sc Ci fib]
-12.4 -15.1 80 -17 -16 1025.3 1009.2
06 22.10 СВ 3 50 км {снег} 10/0
[Cs]
-11.2 -14.8 75 -17 -17 1022.2 1006.2
09 22.10 СВ 3 20 км 10/0
[Ac trans Cs]
-11.8 -14.6 80 -18 -18 1020.1 1004.1
12 22.10 З 1 20 км 4/0
[Ci fib]
-17.9 -19.1 90 -21 -21 1018.2 1001.9 -10.2 0.0
15 22.10 З 1 20 км 10/0
[Ac und]
-14.8 -16.1 90 -17 -17 1015.9 999.9
18 22.10 З 2 20 км 10/0
[Ac trans Ci fib]
-12.9 -14.2 90 -18 -18 1014.3 998.4
21 22.10 З 1 10 км слабый снег 10/0
[As op]
-11.4 -12.0 95 -14 -14 1013.5 997.6
00 23.10 ЮЗ 1 20 км слабый снег 10/0
[Ac trans Cs]
-9.6 -10.4 94 -12 -12 1013.4 997.6 -17.9 0.4 4
03 23.10 ЮЗ 3 20 км слабый снег 10/0
[As op]
-4.6 -6.2 89 -10 -10 1012.8 997.4
06 23.10 ЮЗ 2 20 км слабый снег 10/0
[As op]
-2.6 -3.9 91 -7 -7 1011.5 996.3
09 23.10 ЮЗ 3 20 км {снег} 10/4 600 м
[Sc Ac und]
-1.8 -3.6 87 -7 -7 1010.8 995.6
12 23.10 штиль 0 20 км {снег} 8/0
[Ac trans]
-3.4 -4.2 94 -5 -5 1009.9 994.7 -1.2 0.3
15 23.10 З 1 20 км 6/0
[Ac trans]
-10.4 -11.0 95 -13 -13 1008.6 992.9

 

Местоположение метеостанции Покровск (Якутия, Россия): широта 61.48 долгота 129.10 высота над уровнем моря 121 м.

В архиве по умолчанию представлена погода в Покровске за последнюю неделю. Архивные данные за месяц целиком и за предыдущие месяцы, начиная с января 2011 года, Вы можете получить, выбрав интересующий диапазон дат из раскрывающегося списка и нажав кнопку "Ввод!".

Внимание! Время в таблицах - всемирное. Для получения местного времени необходимо прибавить поправку, которая в Покровске равна 9 ч.

Смотрите также архив погоды в соседних городах и на ближайших метеорологических станциях:

Погода в Якутске (Якутия, Россия) (64 км)
Погода в Тегюльте (Якутия, Россия) (122 км)
Погода в Намцах (Якутия, Россия) (140 км)
Погода в Бердигестяхе (Якутия, Россия) (141 км)
Погода в Амге (Якутия, Россия) (163 км)
Погода в Чурапче (Якутия, Россия) (194 км)
Погода в Исите (Якутия, Россия) (217 км)
Погода в Батамае (Якутия, Россия) (227 км)
Погода в Буяге (Якутия, Россия) (232 км)
Погода в Тонгулахе (Якутия, Россия) (247 км)

Пояснения к столбцам:

Ветер - указаны скорость ветра в м/с - средняя за 10 мин, порывы в срок и между сроками (в фигурных скобках) и направление, откуда дует ветер: С - северный, СВ - северо-восточный, В - восточный, ЮВ - юго-восточный, Ю - южный, ЮЗ - юго-западный, З - западный, СЗ - северо-западный.
Видимость - горизонтальная дальность видимости в метрах или километрах. При видимости от 1 до 10 км при отсутствии осадков обычно наблюдается дымка, при ухудшении видимости до 1 км и менее - туман. В сухую погоду видимость может ухудшаться дымом, пылью или мглою.
Явления - указаны атмосферные явления, наблюдавшиеся в срок или в последний час перед сроком; фигурными скобками обозначены явления, наблюдавшиеся между сроками (за 1-3 часа до срока); квадратными скобками обозначены град или гололедные отложения с указанием их диаметра в мм.
Облачность - указаны через наклонную черту общая и нижняя облачность в баллах и высота нижней границы облаков в метрах; квадратными скобками обозначены формы облаков: Ci - перистые, Cs - перисто-слоистые, Cc - перисто-кучевые, Ac - высококучевые, As - высокослоистые, Sc - слоисто-кучевые, Ns - слоисто-дождевые, Cu - кучевые, Cb - кучево-дождевые. Подробнее классификацию облаков см. в Атласе облаков (PDF).
T - Температура воздуха - температура, измеренная на высоте 2 м над землей.
Td - Температура точки росы - температура, при понижении до которой содержащийся в воздухе водяной пар достигнет насыщения.
f - Относительная влажность воздуха - влажноcть воздуха, измеренная на высоте 2 м над землей.
Te - Эффективная температура - температура, которую ощущает одетый по сезону человек в тени. Характеристика душности погоды. При расчете учитывается влияние влажности воздуха и скорости ветра на теплоощущения человека.
Tes - Эффективная температура на солнце - температура, которую ощущает человек, с поправкой на солнечный нагрев. Характеристика знойности погоды. Зависит от высоты солнца над горизонтом, облачности и скорости ветра. Ночью, в пасмурную погоду, а также при ветре 12 м/с и более поправка равна нулю.
P - Атмосферное давление - приведенное к уровню моря атмосферное давление.
Po - Атмосферное давление - измеренное на уровне метеостанции атмосферное давление.
Tmin - Минимальная температура - минимум температуры воздуха на высоте 2 м над землей.
Tmax - Максимальная температура - максимум температуры воздуха на высоте 2 м над землей.
R - Количество осадков - Количество выпавших осадков за период времени, мм. При наведении курсора мыши на число - период времени, за который выпало указанное количество осадков.
R24 - Количество осадков - Количество выпавших осадков за 24 часа, мм.
S - Снежный покров - Высота снежного покрова, см. При наведении курсора мыши на число - состояние снежного покрова и степень покрытия местности в баллах.